カタログに戻る

CZ-6A DEB

運用中SSO
NORAD 54982·DEBRIS·🇨🇳 China

打ち上げ Nov 11, 2022 から Taiyuan Satellite Launch Center

Loading…

次のパス (今後24時間)

TLE

最新Source: Space-Track

元期: Sep 13, 2026, 00:41 UTC

1 54982U 22151TX  26256.02851865  .00004827  00000-0  11282-2 0  9992
2 54982  98.5796 287.5839 0054896 105.4548 255.2720 14.54215640200833

AllMySatでCZ-6A DEBをリアルタイム追跡

Download on the App Store